Wetbulb
75.33 75.05 74.90 71.97 63.97 64.53 55.13 56.03 60.64 59.62 60.22 63.04 63.50 62.12 62.22 65.32 61.16 58.29 71.95 74.43 74.65 74.16 75.45 76.41 78.12 78.54 78.16 78.50 78.18 78.05 77.63 76.93 76.96 77.37 76.72 76.78 77.02 76.92 76.46 76.69 76.90 76.96 76.75 76.64 77.01 76.76 76.97 76.73 76.45
75.01 74.95 73.61 69.61 62.84 55.21 54.93 59.33 59.22 61.51 63.22 64.52 63.82 63.41 63.98 64.03 68.38 69.28 70.63 75.16 74.63 74.96 75.46 75.80 77.90 78.25 78.16 78.17 78.15 78.07 77.11 76.92 77.09 77.20 76.79 76.96 76.98 76.42 76.12 76.44 76.65 76.73 76.65 76.60 76.82 76.89 76.97 77.02 76.30
74.20 75.74 69.07 67.21 62.96 54.86 55.19 60.49 62.05 63.43 64.16 63.82 63.47 65.47 65.52 65.10 69.59 70.65 73.05 75.12 75.04 74.81 74.66 75.94 78.41 78.30 77.44 77.81 77.94 77.98 77.72 77.41 77.01 77.24 76.98 77.10 76.88 76.33 76.37 76.80 76.40 76.78 76.97 76.68 76.52 76.75 76.45 76.67 76.51
74.58 73.34 71.20 65.06 60.01 58.56 59.49 61.21 61.75 62.04 63.54 64.41 64.77 64.44 67.34 70.79 70.52 72.23 73.49 74.59 74.97 74.35 75.04 76.96 78.39 77.52 77.53 78.01 77.70 77.61 77.03 77.11 77.07 77.19 76.77 76.54 76.46 76.19 76.51 76.21 76.43 76.39 75.92 76.84 76.18 76.12 75.68 76.37 76.46
73.90 71.07 63.12 59.32 58.44 59.82 61.79 63.21 63.59 62.00 63.51 63.46 65.19 63.65 65.51 70.86 73.37 73.13 73.42 74.07 73.82 74.68 75.80 76.26 78.06 78.19 78.19 78.15 77.84 77.40 77.14 77.12 76.79 77.23 76.72 76.61 76.40 76.19 76.62 76.23 76.49 75.92 75.59 76.61 76.51 75.48 76.69 76.65 76.24
69.24 67.13 54.66 58.02 58.81 60.42 62.17 63.63 64.17 63.25 64.50 64.46 65.06 65.39 66.45 72.03 71.74 72.58 73.62 73.88 75.58 75.64 75.00 75.48 78.00 78.39 78.23 77.56 77.11 76.63 76.01 76.13 76.45 76.87 76.92 76.77 76.82 76.86 76.67 76.35 76.75 76.30 75.71 76.64 76.58 76.17 76.51 76.30 75.61
68.40 57.97 55.32 57.32 59.64 58.77 61.08 64.30 62.21 63.13 63.14 62.17 66.28 64.96 67.66 70.18 72.06 73.26 74.47 74.11 75.78 76.30 75.15 75.58 75.92 77.01 77.24 77.01 77.09 77.36 76.58 76.10 76.38 76.35 76.70 76.69 76.35 76.65 76.82 77.20 76.58 76.48 75.81 76.48 76.72 76.31 76.09 75.62 75.37
70.87 68.09 56.84 57.65 56.12 59.05 61.33 62.63 64.11 64.54 63.59 65.93 66.87 64.52 64.91 70.25 72.42 73.00 74.04 74.53 76.20 75.84 75.00 75.20 76.08 76.29 76.49 76.01 77.79 77.79 77.82 76.48 76.46 76.82 76.50 76.91 76.88 76.82 76.46 77.36 76.89 76.69 75.82 76.69 76.59 76.34 76.38 76.58 76.32
71.59 63.81 54.34 54.56 57.32 59.13 63.48 61.48 63.42 65.59 67.01 67.02 66.06 67.54 70.02 72.08 72.68 72.10 72.18 72.78 74.22 75.59 75.20 75.28 75.86 76.43 76.66 76.42 76.40 77.75 77.38 77.42 76.64 76.95 77.05 76.74 75.08 76.32 76.12 77.13 76.86 76.68 75.57 76.23 76.89 76.45 76.96 76.82 75.93
65.96 61.72 56.92 60.51 60.96 59.95 64.58 62.44 62.02 61.45 65.91 66.39 66.46 68.35 71.24 71.80 72.07 70.71 70.77 70.83 71.84 72.53 74.55 75.47 75.84 76.53 76.75 75.35 76.57 76.19 76.48 75.87 76.12 76.17 76.73 75.92 76.01 76.52 75.51 76.57 77.06 77.09 76.19 75.46 76.44 77.33 76.84 76.20 74.03
64.21 60.91 63.44 63.48 63.01 64.52 63.52 63.46 64.41 61.01 60.39 66.51 61.95 67.33 70.26 70.53 71.80 71.55 71.20 71.97 72.28 73.27 74.03 75.30 75.87 76.59 76.14 75.81 76.40 75.67 75.81 76.11 76.21 76.94 76.94 76.43 74.33 75.19 74.76 75.55 75.51 75.91 76.31 73.51 75.56 75.86 75.12 74.60 73.97
59.30 61.46 62.09 62.15 63.10 62.66 61.85 64.17 62.88 61.84 61.98 66.36 65.41 66.95 70.38 69.64 70.27 71.79 72.04 72.41 72.55 73.08 73.63 74.47 76.95 76.75 76.41 76.49 75.94 75.97 75.40 75.14 75.93 76.41 77.00 77.57 73.69 74.88 75.61 74.93 75.47 76.03 76.32 75.13 72.27 73.10 73.57 73.40 73.62
58.85 59.10 59.47 60.05 60.05 59.48 61.00 61.02 62.63 62.50 63.52 65.69 69.58 69.47 70.20 69.92 70.52 72.44 73.00 73.41 73.27 73.11 73.97 74.46 77.42 76.56 76.55 77.05 76.19 76.10 74.00 75.72 75.76 77.04 77.35 76.79 75.87 73.86 76.06 74.48 75.68 75.57 75.22 75.45 73.60 72.94 72.08 72.39 73.54
60.36 59.03 58.16 58.17 57.98 58.18 56.60 58.12 61.88 63.19 64.50 64.11 66.63 70.48 70.26 70.87 70.57 71.49 72.55 72.99 73.18 73.85 74.26 75.56 76.44 77.62 76.56 77.52 79.35 76.97 78.11 74.41 76.76 76.76 76.62 78.15 78.96 75.50 76.78 74.04 75.24 75.20 75.61 75.96 75.57 75.18 73.96 74.29 73.36
59.61 56.55 58.33 58.64 58.83 57.99 58.92 54.81 55.48 62.14 64.11 63.03 66.22 68.46 71.17 72.21 71.92 71.42 72.44 72.91 73.92 74.24 74.69 75.28 75.99 77.24 78.13 78.63 79.45 79.27 78.38 76.29 73.67 74.64 75.06 77.22 78.44 78.53 78.67 77.12 76.89 75.75 74.94 75.41 75.23 75.01 75.72 76.09 74.42
56.15 55.10 51.35 56.06 57.63 57.35 57.62 53.21 56.63 60.76 62.53 63.07 63.52 66.57 69.83 71.74 72.20 72.63 72.78 73.40 74.59 74.47 74.39 75.86 75.76 76.41 76.81 77.78 77.82 77.90 76.62 77.97 77.32 76.97 74.78 77.41 78.62 78.75 78.74 77.10 76.37 75.68 74.09 72.77 74.21 74.36 73.99 74.73 74.10
52.27 48.41 50.45 52.93 57.50 56.70 56.12 54.21 57.35 60.06 61.67 62.44 63.64 65.09 66.42 69.46 72.36 73.60 73.08 73.13 73.91 75.06 75.39 75.91 76.10 76.13 76.40 77.53 77.40 77.34 77.67 77.38 75.84 77.14 76.52 77.60 77.50 77.62 77.60 75.94 75.93 72.34 72.80 74.02 73.75 74.33 73.66 73.07 74.26
48.41 49.68 51.28 51.40 54.94 55.68 54.84 54.50 56.98 59.01 59.29 60.90 61.98 62.97 64.34 64.21 68.35 73.46 73.18 72.91 74.05 75.67 76.44 76.70 76.74 77.15 77.26 77.23 77.11 75.97 76.03 75.85 76.19 75.54 75.30 77.56 76.69 77.60 77.20 76.47 76.44 72.11 71.50 73.05 74.41 73.12 74.07 73.79 73.15
52.44 51.32 50.81 53.24 55.76 54.32 53.59 54.95 56.18 58.53 58.92 58.36 60.29 62.30 63.21 63.72 65.29 72.36 73.50 73.58 73.54 75.48 76.11 76.43 76.65 77.52 76.71 76.02 74.77 74.82 73.63 74.37 74.68 75.45 77.11 77.16 76.84 76.28 76.27 76.02 75.96 71.06 69.19 73.00 74.11 73.76 72.30 71.98 73.67
52.67 50.87 50.32 52.63 54.41 53.54 53.25 53.17 55.67 56.84 57.93 58.98 59.09 60.18 60.60 60.52 63.96 68.74 73.45 73.39 73.18 74.50 75.68 76.34 76.67 77.44 77.02 76.42 75.91 76.01 74.95 74.76 74.81 75.13 77.91 77.09 76.88 77.18 75.43 76.29 75.26 74.91 73.57 73.89 74.64 73.56 72.56 72.52 73.34
51.06 49.68 50.24 50.06 52.87 53.72 52.50 51.24 54.27 56.26 57.32 58.80 60.12 61.36 61.00 61.36 61.63 66.15 72.77 72.80 73.40 73.34 75.29 75.87 76.69 77.18 77.50 77.09 76.89 76.80 76.73 75.95 74.03 74.51 77.29 77.50 77.21 77.29 76.62 76.62 76.04 74.95 75.61 74.41 74.10 75.08 72.76 71.07 73.14
48.53 52.48 51.89 51.34 49.88 46.39 52.83 46.26 54.14 54.52 56.03 57.88 59.70 59.74 60.34 61.46 62.75 65.46 72.77 72.87 73.20 73.88 75.77 76.61 77.20 77.70 77.90 77.93 76.46 75.83 74.65 72.72 73.80 74.01 75.97 76.41 77.99 77.31 77.04 76.48 76.11 75.48 76.24 74.05 74.51 75.24 74.32 72.53 71.11
50.23 52.98 51.52 50.92 49.34 48.82 49.29 46.90 51.05 55.65 55.50 57.23 57.79 60.07 59.96 61.86 61.87 62.45 73.01 73.36 73.68 74.76 75.09 76.68 77.69 77.95 78.00 77.66 77.16 76.34 75.09 75.16 75.41 75.00 75.59 77.75 77.14 76.92 76.84 76.42 75.86 74.64 75.50 75.24 74.58 75.86 74.72 73.25 71.88
53.73 51.87 51.60 51.56 50.25 45.29 49.53 48.81 48.93 51.60 53.99 55.98 57.90 59.49 61.45 61.00 62.25 63.32 73.73 74.72 74.09 75.07 75.71 76.77 77.44 77.80 78.43 77.41 78.02 76.83 76.07 76.14 75.18 75.30 76.36 76.43 76.63 76.75 76.94 74.13 73.61 72.08 73.09 74.03 75.61 76.03 75.42 73.35 73.29
52.16 49.45 44.50 44.22 44.36 43.70 50.41 48.38 51.06 55.10 56.20 57.34 57.61 58.31 60.07 61.56 63.19 63.65 72.78 73.85 74.08 74.19 75.19 75.90 77.35 77.61 78.35 77.84 77.14 77.89 77.25 77.08 78.17 78.51 77.08 76.39 75.71 76.65 75.67 74.54 72.52 71.28 73.48 74.81 75.96 75.83 75.42 73.45 72.09
50.65 49.99 45.13 40.82 41.69 43.77 50.65 46.17 50.01 56.72 57.90 58.87 59.64 59.79 60.51 62.91 67.94 67.22 73.28 73.74 74.23 74.73 75.25 75.58 76.73 77.49 78.26 78.45 77.48 78.50 78.14 77.35 77.63 79.14 77.46 76.34 76.04 76.67 77.01 74.91 74.36 74.69 75.76 75.51 75.73 75.72 74.69 74.35 72.86
50.69 48.24 52.09 48.01 48.20 44.81 47.46 51.02 54.36 56.77 56.21 57.34 58.24 59.51 60.27 61.46 67.92 69.98 71.27 73.87 74.35 74.51 75.26 75.72 76.17 78.08 78.33 78.56 78.71 77.10 79.01 79.41 77.46 79.20 78.74 76.93 78.10 76.41 75.59 75.04 74.98 75.40 75.82 76.48 76.64 75.59 75.06 75.18 74.23
52.67 53.70 46.89 47.89 42.61 41.29 45.61 46.50 48.53 53.65 55.31 57.29 58.54 58.29 57.50 57.77 59.30 64.66 71.32 71.97 74.51 74.68 75.47 76.22 76.98 78.15 78.60 78.73 78.97 78.48 78.73 78.61 79.53 79.57 78.06 77.62 78.48 77.93 75.18 74.98 75.42 75.97 76.61 76.53 76.59 75.22 75.13 74.28 73.86
52.34 51.63 51.98 51.21 48.83 43.15 43.23 45.85 54.30 55.42 58.22 57.86 54.92 54.64 54.99 56.98 58.79 61.70 73.98 74.67 72.82 74.10 74.94 76.08 76.71 78.41 78.39 78.79 78.87 78.84 78.18 79.55 79.07 79.58 78.39 78.93 77.18 76.63 75.77 75.53 75.74 75.95 75.99 76.13 75.99 75.34 74.59 73.86 73.35
54.05 53.21 52.88 47.97 45.99 48.37 47.18 46.97 56.92 56.55 58.74 58.42 57.19 56.44 56.52 59.06 57.90 71.75 73.49 73.57 75.15 73.35 73.92 75.80 76.13 78.15 78.55 79.07 78.65 78.65 79.32 79.22 78.48 79.30 79.11 78.77 76.34 76.54 77.00 77.35 76.92 76.43 75.57 75.64 75.00 74.06 73.59 73.12 72.62
MSLP
1007.79 1007.53 1007.15 1006.71 1005.96 1002.78 999.50 998.74 998.32 998.24 998.45 998.83 999.22 999.47 1000.36 1001.27 1003.15 1004.26 1004.01 1004.92 1006.33 1008.09 1009.20 1009.96 1010.46 1010.85 1011.44 1011.89 1012.19 1012.52 1012.82 1013.20 1013.60 1013.93 1014.22 1014.44 1014.71 1014.76 1014.98 1015.09 1015.22 1015.44 1015.54 1015.70 1015.78 1016.03 1016.23 1016.41 1016.58
1007.08 1006.39 1006.57 1005.69 1003.56 999.38 998.51 998.16 997.96 998.24 998.29 998.45 999.07 999.17 1000.01 1001.30 1002.11 1002.99 1004.06 1005.26 1006.45 1007.81 1009.18 1009.93 1010.67 1010.99 1011.37 1011.94 1012.37 1012.61 1013.00 1013.31 1013.68 1013.95 1014.22 1014.39 1014.56 1014.83 1015.05 1015.21 1015.47 1015.63 1015.75 1015.87 1016.03 1016.21 1016.37 1016.65 1016.88
1007.28 1005.94 1005.40 1003.65 999.80 998.12 997.55 997.27 997.15 997.52 998.07 998.24 998.77 999.86 1000.64 1001.67 1002.28 1003.17 1004.35 1005.14 1006.55 1007.84 1008.53 1009.90 1010.67 1011.15 1011.51 1011.93 1012.34 1012.75 1013.12 1013.42 1013.69 1013.91 1014.23 1014.38 1014.62 1014.92 1015.14 1015.34 1015.58 1015.65 1015.85 1016.05 1016.26 1016.36 1016.52 1016.73 1016.98
1005.37 1004.39 1003.80 1002.03 999.00 997.10 996.92 996.69 996.39 996.93 997.53 998.32 998.48 1000.03 1001.27 1001.62 1002.16 1003.40 1004.47 1005.14 1006.36 1007.35 1008.35 1010.06 1010.59 1011.12 1011.59 1012.00 1012.47 1012.89 1013.25 1013.57 1013.86 1014.10 1014.25 1014.42 1014.67 1014.99 1015.21 1015.42 1015.63 1015.72 1015.97 1016.07 1016.36 1016.63 1016.68 1016.87 1017.10
1004.76 1004.61 1003.36 1000.38 997.65 996.08 996.00 996.19 995.57 996.36 997.37 998.10 999.03 1000.51 1001.51 1002.10 1003.00 1003.80 1004.41 1004.89 1005.72 1006.77 1008.64 1010.05 1010.80 1011.28 1011.74 1012.14 1012.53 1012.95 1013.26 1013.54 1013.86 1013.99 1014.28 1014.37 1014.73 1014.97 1015.21 1015.52 1015.66 1015.77 1016.07 1016.24 1016.48 1016.76 1016.80 1017.06 1017.24
1004.32 1005.67 1006.63 1002.56 998.17 995.71 995.26 995.07 995.08 995.50 996.49 997.65 998.48 999.99 1001.58 1002.60 1003.36 1004.03 1004.48 1004.91 1005.53 1007.19 1008.68 1010.01 1010.94 1011.44 1011.90 1012.29 1012.63 1013.04 1013.34 1013.61 1013.84 1013.96 1014.18 1014.42 1014.69 1014.91 1015.20 1015.44 1015.72 1015.97 1016.17 1016.39 1016.63 1016.84 1017.03 1017.21 1017.40
1003.68 1006.36 1005.75 1005.46 1000.89 997.03 995.37 994.34 994.59 994.79 995.75 997.02 997.87 999.37 1001.47 1002.36 1003.32 1003.87 1004.59 1004.99 1005.98 1007.22 1008.53 1009.71 1010.81 1011.49 1011.99 1012.39 1012.66 1012.95 1013.36 1013.62 1013.85 1014.00 1014.25 1014.52 1014.72 1014.93 1015.12 1015.44 1015.72 1016.00 1016.30 1016.47 1016.71 1016.91 1017.09 1017.29 1017.45
1002.03 1002.46 1005.49 1005.00 1003.42 999.03 995.67 994.74 994.47 994.74 995.79 996.70 997.36 998.55 1000.48 1001.77 1003.05 1003.78 1004.52 1005.00 1005.84 1006.91 1008.42 1009.37 1010.54 1011.29 1011.81 1012.30 1012.71 1012.89 1013.13 1013.49 1013.71 1013.97 1014.23 1014.45 1014.59 1014.78 1015.00 1015.40 1015.74 1015.95 1016.28 1016.44 1016.71 1016.92 1017.19 1017.37 1017.45
1000.89 1001.48 1005.67 1006.43 1003.17 1000.82 997.03 995.02 994.46 994.44 995.27 996.29 997.46 998.37 999.66 1000.94 1002.43 1003.69 1004.38 1005.00 1005.58 1006.78 1007.88 1008.79 1010.16 1010.96 1011.47 1011.90 1012.49 1012.87 1013.11 1013.42 1013.74 1013.91 1014.15 1014.34 1014.28 1014.47 1014.87 1015.18 1015.60 1015.89 1016.17 1016.50 1016.69 1016.99 1017.20 1017.35 1017.44
999.90 999.91 1002.77 1002.35 1005.07 1002.69 996.92 995.28 994.75 994.21 994.93 996.41 997.87 998.95 1000.15 1000.54 1001.65 1002.91 1004.11 1004.49 1005.34 1006.02 1007.03 1008.05 1009.33 1010.47 1011.03 1011.22 1012.01 1012.58 1012.89 1013.14 1013.42 1013.68 1013.71 1013.69 1013.54 1013.88 1014.37 1014.82 1015.40 1015.72 1016.11 1016.43 1016.65 1016.85 1017.09 1017.27 1017.05
998.78 998.66 998.68 1000.77 1001.13 997.55 995.97 995.35 994.77 994.53 994.90 996.71 1000.96 1001.01 1000.75 1000.92 1001.17 1002.11 1003.42 1004.30 1004.90 1005.73 1006.29 1007.37 1008.52 1009.53 1010.37 1010.57 1011.46 1011.95 1012.24 1012.52 1012.80 1013.24 1013.33 1013.36 1013.91 1014.23 1013.91 1014.66 1015.13 1015.53 1015.88 1016.15 1016.47 1016.72 1016.82 1016.69 1016.45
998.07 997.92 997.97 997.74 997.41 996.96 995.97 995.32 994.72 994.80 994.69 996.48 997.86 1000.63 1000.28 1000.77 1001.27 1001.78 1002.60 1003.63 1004.58 1005.26 1005.99 1006.79 1007.99 1009.12 1009.72 1009.95 1010.60 1010.99 1011.43 1011.72 1012.31 1012.61 1012.82 1012.84 1013.72 1013.70 1013.70 1014.38 1014.61 1015.12 1015.37 1015.48 1015.85 1016.06 1016.17 1016.00 1016.00
997.93 997.32 997.12 997.00 996.70 996.31 995.80 995.22 994.71 994.55 994.61 994.72 996.95 999.15 999.19 1000.07 1000.99 1001.83 1002.73 1003.34 1004.27 1004.91 1005.56 1006.29 1007.43 1008.50 1009.13 1009.69 1010.00 1010.26 1010.81 1010.89 1011.14 1011.54 1011.98 1012.23 1012.32 1012.99 1013.13 1013.97 1014.23 1014.50 1014.89 1015.11 1015.38 1015.29 1015.43 1015.45 1015.51
998.39 997.84 997.32 997.02 996.68 996.24 995.80 995.22 994.81 994.40 994.20 994.25 995.20 996.71 997.84 999.08 1000.19 1001.24 1002.22 1002.97 1003.83 1004.76 1005.22 1005.89 1006.98 1008.20 1008.91 1009.45 1009.60 1009.88 1009.97 1010.08 1010.01 1010.34 1010.85 1010.97 1011.53 1012.43 1012.83 1013.58 1013.90 1014.12 1014.67 1014.62 1014.76 1014.82 1015.05 1014.92 1014.84
998.86 998.11 997.30 996.75 996.17 995.59 995.14 994.65 994.42 994.26 994.00 993.82 994.57 995.59 996.57 997.96 999.16 1000.33 1001.47 1002.42 1003.32 1004.24 1005.05 1005.50 1006.50 1007.49 1008.45 1009.12 1009.51 1009.64 1009.61 1009.52 1010.36 1012.26 1010.46 1012.17 1011.28 1012.03 1012.25 1012.98 1013.41 1013.57 1014.08 1014.47 1014.87 1014.93 1014.67 1014.61 1014.61
999.56 998.76 997.40 996.78 995.90 994.99 994.41 993.72 993.69 993.52 993.46 993.55 994.43 994.99 995.62 996.78 997.85 999.18 1000.43 1001.71 1002.84 1003.80 1004.71 1005.51 1005.99 1006.98 1007.94 1008.72 1009.22 1009.46 1009.50 1009.30 1009.25 1010.18 1011.70 1011.50 1011.06 1012.03 1012.56 1013.06 1013.40 1013.50 1014.15 1014.46 1014.78 1015.10 1015.14 1014.96 1014.74
999.31 998.05 997.11 996.02 995.17 994.36 993.97 993.16 992.77 992.80 992.87 993.26 993.99 994.06 994.79 995.40 996.42 997.69 999.13 1000.51 1001.90 1003.25 1004.35 1005.26 1006.00 1006.73 1007.47 1008.17 1008.78 1009.24 1009.41 1009.45 1009.37 1009.24 1009.73 1010.54 1011.11 1011.70 1012.64 1012.90 1013.09 1013.96 1014.34 1014.36 1014.59 1015.11 1015.14 1015.07 1014.87
998.50 997.39 996.36 995.40 994.79 994.05 993.53 993.09 992.69 992.89 993.01 992.76 993.04 993.46 993.99 994.51 995.10 996.20 997.77 999.30 1000.86 1002.46 1003.91 1004.87 1005.64 1006.34 1007.31 1007.97 1008.55 1008.96 1009.15 1009.25 1009.10 1009.34 1009.53 1010.25 1010.93 1011.54 1012.28 1012.49 1012.85 1013.82 1014.14 1013.98 1014.02 1014.57 1014.85 1014.66 1014.73
998.17 997.46 996.55 995.94 995.48 994.93 994.18 993.28 992.87 992.55 992.50 992.56 992.61 992.84 993.23 993.69 994.01 995.04 996.36 998.07 999.84 1001.56 1003.14 1004.29 1005.23 1005.91 1006.70 1007.38 1008.00 1008.33 1008.59 1008.82 1008.93 1008.92 1008.99 1009.67 1010.49 1011.19 1011.97 1012.36 1012.70 1013.04 1013.35 1013.79 1013.46 1014.06 1014.44 1014.53 1014.53
997.65 997.12 996.36 995.67 995.33 995.05 994.55 993.86 993.46 992.93 992.62 992.58 992.57 992.54 992.69 993.13 993.56 993.99 995.46 997.05 998.73 1000.50 1002.07 1003.50 1004.61 1005.44 1006.06 1006.74 1007.40 1007.81 1008.06 1008.25 1008.52 1008.67 1008.77 1009.16 1009.65 1010.49 1011.51 1011.85 1012.45 1012.80 1013.17 1013.10 1013.27 1013.73 1013.96 1014.03 1013.90
996.86 996.52 996.06 995.64 995.42 995.14 994.89 993.71 993.50 993.06 992.72 992.55 992.38 992.24 992.25 992.75 993.02 993.21 994.63 995.96 997.82 999.56 1000.93 1002.39 1003.72 1004.75 1005.48 1006.23 1006.94 1007.31 1007.54 1007.84 1008.15 1008.20 1008.38 1008.74 1009.06 1009.70 1010.49 1011.18 1011.69 1012.12 1012.44 1012.38 1012.67 1013.21 1013.50 1013.64 1013.52
996.33 996.01 995.96 995.70 995.49 994.82 995.00 993.23 993.03 992.92 992.46 992.18 991.87 991.63 991.44 991.61 992.08 992.42 993.82 995.34 996.65 998.21 999.99 1001.54 1002.90 1003.95 1004.90 1005.61 1006.00 1006.32 1006.39 1006.77 1007.13 1007.50 1007.63 1008.07 1008.54 1009.23 1009.74 1010.40 1011.34 1011.63 1011.98 1012.34 1012.39 1012.42 1012.84 1013.23 1013.36
996.47 996.39 996.28 996.18 995.83 995.38 994.83 994.20 993.29 993.43 992.93 992.55 992.33 991.50 990.65 990.80 990.92 991.43 993.04 994.27 995.46 997.18 998.90 1000.60 1002.10 1003.22 1004.04 1004.64 1005.10 1005.65 1005.97 1006.23 1006.52 1006.80 1007.11 1007.45 1008.20 1008.71 1009.34 1009.98 1010.74 1011.25 1011.23 1011.80 1011.82 1011.85 1012.34 1012.60 1012.80
996.74 996.58 996.45 995.99 995.31 994.72 993.91 994.59 994.50 994.69 994.25 994.13 993.90 992.44 991.68 990.61 990.16 990.42 992.05 993.75 995.18 996.63 998.48 999.97 1001.39 1002.57 1003.40 1004.09 1004.44 1004.92 1005.35 1005.61 1005.91 1006.22 1006.52 1007.16 1007.84 1008.42 1009.03 1009.51 1010.42 1010.98 1010.97 1011.14 1011.33 1011.44 1011.62 1011.99 1012.19
996.34 996.20 995.68 995.22 994.50 993.90 994.13 994.41 994.21 994.24 994.32 994.73 994.47 993.63 992.59 991.00 990.23 989.37 991.39 992.98 994.49 995.89 997.40 999.24 1000.56 1001.70 1002.72 1003.48 1003.96 1004.17 1004.69 1005.27 1005.44 1005.69 1006.22 1006.85 1007.39 1007.93 1008.67 1009.27 1010.07 1010.47 1010.77 1010.67 1010.64 1010.93 1011.13 1011.28 1011.69
996.32 996.29 996.10 995.51 995.15 994.74 994.66 995.17 994.64 994.44 994.46 994.40 994.46 994.83 994.29 991.56 991.35 989.90 991.04 992.27 993.70 995.14 996.54 998.09 999.52 1000.69 1001.65 1002.55 1003.30 1003.66 1004.17 1004.64 1005.11 1005.17 1005.69 1006.35 1006.73 1007.19 1007.96 1008.75 1009.22 1009.57 1009.88 1010.04 1010.30 1010.46 1010.74 1011.05 1011.20
995.84 995.84 995.61 995.58 995.87 995.26 995.15 995.67 995.21 994.91 994.95 995.76 995.42 995.76 997.24 996.01 993.52 991.94 990.81 991.77 992.84 994.06 995.33 996.65 998.32 999.69 1000.78 1001.67 1002.49 1003.07 1003.24 1003.53 1004.12 1004.57 1005.10 1005.67 1005.98 1006.51 1007.34 1008.02 1008.43 1008.74 1009.00 1009.21 1009.51 1010.01 1010.30 1010.64 1010.89
995.67 995.94 995.91 995.95 996.28 996.13 995.82 996.58 995.45 996.31 996.92 997.35 997.96 998.47 998.72 997.95 997.55 997.08 993.70 990.93 992.67 993.18 994.19 995.58 997.00 998.29 999.62 1000.68 1001.43 1001.98 1002.33 1002.78 1003.32 1004.02 1004.77 1005.18 1005.54 1005.85 1006.53 1007.34 1007.84 1008.20 1008.43 1008.73 1008.90 1009.39 1009.86 1010.21 1010.44
996.04 996.16 996.55 997.50 998.58 998.30 997.62 997.57 998.44 998.43 999.83 1001.45 1002.74 1003.02 1002.83 999.39 998.60 999.17 995.36 993.82 993.00 993.02 993.65 994.63 996.06 997.58 998.78 999.66 1000.35 1001.08 1001.68 1002.18 1002.99 1003.31 1004.00 1004.52 1005.04 1005.55 1006.10 1006.46 1006.82 1007.20 1007.68 1008.27 1008.57 1008.83 1009.17 1009.55 1009.82
996.94 997.79 998.23 998.85 999.67 999.45 1000.49 998.87 999.14 998.50 1000.71 1003.06 1004.11 1004.39 1005.70 1004.87 1002.04 997.36 996.30 996.10 995.44 993.67 993.35 993.88 995.02 996.51 997.80 998.65 999.51 1000.42 1001.42 1002.05 1002.72 1002.99 1003.47 1004.15 1004.93 1005.54 1005.94 1005.94 1006.18 1006.49 1007.01 1007.56 1008.15 1008.36 1008.29 1008.70 1009.26
Wind_Speed
10 11 8 5 5 8 17 20 17 17 15 13 9 11 12 21 10 5 16 24 26 21 19 17 15 15 14 14 14 14 14 14 13 12 11 11 11 10 9 9 10 11 11 12 11 11 11 11 12
12 13 4 6 7 7 14 17 15 11 8 7 12 10 12 19 15 19 15 25 24 22 19 18 15 15 14 13 14 14 14 14 13 12 10 10 10 9 9 8 10 12 10 11 11 11 12 13 12
13 18 7 7 7 12 13 12 12 13 12 13 14 15 16 13 18 12 18 25 23 19 19 18 17 15 15 13 12 12 12 13 12 11 10 9 10 9 9 9 10 10 10 11 10 11 11 11 12
10 8 7 8 11 14 15 10 16 17 16 8 15 14 14 14 14 21 18 24 22 20 20 20 18 16 15 14 12 12 11 10 10 10 10 9 8 9 9 10 10 10 8 10 9 9 12 11 12
11 7 11 6 6 15 16 9 11 15 17 11 17 16 14 15 19 19 17 18 20 20 21 20 18 16 15 13 13 11 10 10 11 10 10 10 9 10 10 10 9 10 9 8 10 10 11 11 11
7 9 7 12 6 16 10 10 17 16 16 11 16 17 14 15 16 16 16 13 21 22 21 19 18 16 15 14 14 12 11 10 8 9 10 9 8 9 10 10 10 9 9 8 9 11 12 11 10
14 8 5 22 19 7 11 4 7 14 15 15 8 18 13 15 16 16 13 11 21 22 19 15 14 14 16 15 14 13 12 11 10 9 9 10 9 9 9 11 10 10 9 10 9 10 11 11 10
15 14 6 12 20 15 3 13 9 11 13 13 13 10 17 20 18 17 14 10 19 19 18 17 13 12 11 12 12 12 12 11 9 9 10 8 10 11 10 10 9 10 9 9 10 9 11 9 8
20 16 9 7 16 24 14 9 9 9 14 7 3 15 23 25 23 18 16 13 8 18 18 17 15 12 11 11 11 11 11 12 12 11 11 10 7 9 12 12 15 12 10 10 11 11 10 9 9
16 15 17 25 24 17 21 9 9 8 18 14 10 18 24 27 23 21 17 16 14 15 19 17 18 16 12 12 12 9 10 8 8 8 8 8 8 7 11 11 14 13 11 11 10 11 11 10 7
22 17 20 20 39 18 14 10 8 14 6 26 20 11 22 22 22 21 20 17 15 14 11 17 18 17 14 8 9 7 6 7 7 9 9 9 3 5 6 6 7 7 11 6 8 8 7 10 8
22 21 19 18 20 22 20 16 12 12 14 16 31 33 23 21 20 20 20 18 18 16 14 15 19 16 15 8 9 10 8 6 6 9 11 4 7 7 6 6 8 7 6 6 8 7 8 10 10
23 21 20 19 19 18 19 20 16 14 12 4 32 32 24 20 18 16 17 17 17 16 15 14 15 14 11 7 8 7 8 8 9 9 10 8 8 8 8 5 6 7 7 5 6 7 8 8 7
21 23 23 22 22 21 21 22 19 18 15 4 10 22 21 19 20 17 17 17 18 16 16 14 16 15 11 9 5 6 5 7 8 10 11 11 3 5 4 8 7 7 6 5 7 5 5 6 6
22 23 20 20 21 22 21 21 22 21 18 14 14 11 18 18 20 18 18 16 18 17 16 16 16 14 10 8 5 4 3 4 7 9 2 9 6 5 3 3 3 4 6 5 5 6 5 3 2
23 25 21 22 23 22 20 18 20 20 17 12 5 15 15 19 21 21 20 17 17 18 17 15 15 17 14 10 7 5 5 4 4 4 14 9 5 5 2 2 4 4 6 6 5 5 4 4 3
18 21 24 24 22 22 20 19 16 15 13 10 25 13 14 17 19 21 23 21 19 17 17 15 15 17 17 13 10 8 8 5 6 4 4 9 8 8 5 5 2 6 7 7 6 6 6 5 4
20 20 22 23 21 23 17 19 18 13 19 19 11 11 11 13 18 21 25 23 20 18 18 16 14 16 15 11 9 9 8 8 7 7 8 12 9 9 8 5 3 5 3 8 7 7 6 4 6
23 25 26 23 22 23 24 24 19 17 15 17 15 13 14 15 13 23 25 23 22 20 20 19 17 16 13 11 12 10 11 9 9 7 7 12 10 9 9 7 5 5 9 11 11 8 8 6 6
20 23 24 25 22 21 22 24 24 22 20 18 20 17 14 15 17 13 23 24 23 22 22 20 19 16 15 11 11 8 10 9 9 8 7 12 13 12 11 7 5 8 10 10 6 8 6 6 6
19 17 20 21 20 21 22 25 23 24 21 19 22 20 15 16 20 15 24 25 24 24 24 22 20 19 17 15 10 8 8 7 9 9 7 9 12 11 12 12 9 8 6 6 6 6 8 5 4
20 18 18 18 19 18 19 18 16 19 20 22 22 24 23 19 20 17 25 23 25 24 22 22 21 20 17 17 14 15 11 10 9 8 8 9 11 12 12 11 11 10 6 8 7 6 6 8 6
18 17 17 18 19 21 21 15 13 16 15 15 24 26 17 18 19 18 25 26 25 23 23 21 21 19 20 18 15 13 12 9 8 9 10 9 9 9 9 10 9 11 8 8 10 6 8 6 7
13 15 15 19 17 15 17 3 8 12 14 14 18 20 30 18 18 20 26 23 21 19 21 20 21 20 19 19 17 17 16 11 10 9 8 6 7 7 6 5 5 7 12 10 7 7 8 8 7
14 14 12 13 12 13 12 7 10 11 15 8 11 23 27 20 15 16 25 24 22 22 21 20 21 21 21 21 20 17 15 14 9 8 6 7 5 5 6 7 10 10 14 9 6 6 7 9 5
15 13 9 17 14 18 17 9 10 12 5 10 13 21 20 17 11 3 26 22 22 22 20 21 21 22 22 21 20 15 15 11 10 7 6 6 6 6 7 9 11 12 9 7 7 4 5 5 5
15 16 18 14 17 16 10 10 17 11 5 2 13 19 20 30 15 14 4 26 23 23 23 23 22 21 21 21 18 19 15 14 13 9 9 8 7 8 10 10 9 9 10 10 7 5 5 5 6
19 13 15 12 14 17 8 10 5 10 14 12 15 16 16 27 29 31 8 2 18 21 22 22 22 23 22 21 19 17 17 17 11 11 11 9 8 5 12 11 10 11 8 5 6 5 6 6 6
10 11 10 8 8 9 17 7 12 20 21 25 23 24 24 20 41 47 10 16 7 15 19 20 20 21 21 21 19 18 18 15 13 11 13 10 10 8 10 11 10 9 9 8 7 6 6 7 7
11 5 8 3 6 9 10 8 13 16 19 13 17 19 12 20 35 15 15 16 21 13 16 20 20 20 20 19 18 18 15 15 15 11 13 10 10 9 8 7 7 6 10 9 8 8 8 8 7
Wind_Direction
188 217 219 239 250 230 64 65 50 50 50 59 46 53 53 56 138 152 128 114 122 138 140 146 143 141 139 133 135 145 145 146 142 142 141 137 133 130 121 112 116 119 127 125 127 131 120 109 117
221 220 213 290 251 104 73 74 72 62 52 90 39 60 83 68 98 114 114 124 128 134 147 145 145 143 139 138 137 140 148 148 146 143 141 141 137 131 127 126 124 123 127 125 125 127 123 120 123
261 262 259 219 273 54 83 85 99 96 75 39 96 53 47 92 120 111 127 126 128 137 149 138 146 144 143 138 138 140 146 147 150 146 143 142 135 134 138 128 128 129 127 131 135 134 126 127 129
233 217 219 245 276 86 83 88 91 76 95 68 57 85 80 84 128 121 141 130 138 148 135 144 146 147 145 146 144 147 148 147 153 155 147 142 145 142 140 138 141 127 130 134 133 136 134 136 135
236 287 303 297 247 102 112 127 108 99 88 77 82 84 91 86 99 131 144 138 151 135 132 145 149 150 151 146 143 148 150 154 161 159 149 143 148 151 146 141 145 135 138 137 144 143 128 131 134
232 42 340 307 333 103 78 140 118 111 116 138 111 107 101 107 127 140 150 151 119 126 139 145 151 153 153 155 155 157 157 161 160 152 159 151 149 146 157 157 149 150 146 154 139 144 136 140 148
254 122 233 306 330 87 114 110 49 107 111 104 147 113 125 140 140 144 148 168 129 138 129 142 156 159 161 165 165 164 165 168 170 172 159 165 159 155 157 148 153 158 159 147 154 144 145 149 153
253 291 21 269 323 281 33 100 118 70 88 125 162 129 151 142 149 146 151 172 135 130 140 141 154 166 168 169 176 176 172 172 179 173 179 177 169 165 162 154 160 161 165 157 161 160 156 157 165
260 272 78 343 324 336 327 13 58 148 140 133 105 126 148 146 150 155 157 165 166 138 148 150 150 165 175 168 175 186 184 177 182 188 189 184 187 176 159 185 163 170 168 178 170 164 169 171 188
256 271 169 163 241 281 294 32 317 322 138 138 118 121 144 152 155 159 168 165 182 165 153 155 158 161 176 175 156 187 181 187 193 182 195 210 203 172 175 150 163 169 174 182 171 173 177 187 194
276 268 295 196 201 231 325 332 353 321 3 119 139 275 159 164 161 161 171 173 178 174 169 155 159 158 168 187 159 183 183 188 191 177 206 205 72 244 145 152 170 171 180 181 180 179 198 206 233
273 277 274 293 306 313 316 314 321 294 321 129 138 243 163 171 173 170 171 171 176 173 181 162 145 160 173 182 171 183 185 184 177 183 200 196 176 206 175 163 180 174 171 201 181 188 207 220 224
284 290 296 296 296 296 296 294 299 287 292 28 159 199 160 172 174 175 176 172 174 173 181 169 146 157 174 202 175 175 193 176 175 175 190 201 193 199 139 159 193 174 184 181 208 193 200 220 211
299 303 299 297 294 293 291 290 284 281 268 261 137 151 160 171 173 180 178 178 175 173 180 163 154 156 174 198 157 188 202 186 192 180 181 196 208 174 167 171 190 183 177 206 211 218 207 197 208
280 279 289 283 279 272 264 263 258 263 264 261 157 177 161 172 178 181 179 183 176 172 179 168 160 160 165 176 185 171 247 188 147 221 20 210 178 167 182 164 177 196 167 171 235 264 257 254 246
283 282 281 276 273 273 274 257 261 255 251 251 328 171 174 177 187 177 177 180 176 171 178 172 166 165 172 177 179 188 219 215 271 162 173 193 170 150 214 227 193 217 161 175 192 214 254 269 213
263 264 266 271 268 271 277 277 258 255 257 192 219 187 185 185 187 175 174 175 175 172 171 173 175 173 174 177 178 194 193 216 223 194 187 167 183 180 202 218 134 87 284 182 184 207 213 225 228
276 282 290 297 303 305 279 262 267 246 265 268 247 217 216 222 194 173 174 175 174 168 170 175 177 172 173 174 183 184 202 202 216 217 191 168 184 188 181 229 145 152 221 216 181 192 217 224 228
268 273 275 276 285 286 293 296 295 291 255 247 255 250 222 244 244 176 173 170 169 167 169 178 179 176 173 178 186 189 201 197 208 220 198 162 179 186 193 206 170 159 244 236 191 182 197 219 245
281 281 282 283 277 281 277 277 282 280 268 262 263 265 259 265 253 207 169 167 171 169 171 178 183 182 181 183 185 199 190 196 202 215 182 168 177 177 193 206 198 198 215 240 213 196 199 212 214
273 273 289 289 289 276 280 278 274 271 266 262 270 266 254 245 260 233 168 170 169 173 175 177 182 186 183 186 181 195 192 204 194 206 187 179 185 175 187 191 202 213 220 235 215 212 219 211 245
279 281 282 294 299 291 297 291 271 268 262 249 241 240 238 236 231 232 170 170 173 176 173 174 180 187 184 186 187 196 197 196 191 195 198 192 182 185 189 196 204 203 196 214 224 207 207 218 229
300 304 303 296 286 283 280 271 284 328 306 322 335 316 221 248 228 228 171 175 179 170 177 175 180 188 185 190 193 192 200 192 202 192 207 189 185 200 201 186 203 228 204 212 215 200 204 221 224
301 294 286 267 258 258 268 317 306 298 288 333 308 315 290 245 248 213 169 171 173 172 171 177 182 188 188 195 200 196 195 202 194 208 191 168 166 186 204 185 114 304 285 224 213 210 208 217 222
251 261 269 283 291 293 349 275 300 233 267 299 286 291 303 277 278 218 160 165 171 178 175 178 181 188 192 194 202 197 196 208 204 190 176 154 175 186 187 152 176 202 235 227 214 212 212 228 200
299 306 292 291 304 311 318 309 313 332 163 239 265 301 283 309 0 66 154 160 171 180 178 179 185 188 191 194 198 210 196 198 218 183 164 177 197 175 160 176 189 206 208 215 213 210 224 190 196
279 268 276 288 280 285 333 343 302 331 291 194 292 304 335 351 358 14 307 168 173 178 183 183 185 187 191 196 195 203 191 198 200 206 172 187 201 167 163 185 191 199 205 199 189 198 208 208 210
259 286 290 285 299 288 263 253 268 5 2 319 332 355 353 349 332 320 323 287 177 179 184 186 182 187 187 194 196 196 206 196 189 188 176 198 188 179 166 180 193 200 200 191 185 190 216 219 221
322 271 310 339 327 310 312 26 39 15 5 59 42 18 15 43 317 290 344 341 321 184 184 186 184 180 189 191 193 197 198 191 199 186 176 194 156 171 167 181 196 190 175 190 194 193 204 216 239
327 44 360 307 284 307 302 292 34 33 19 352 99 73 289 229 242 352 27 19 352 318 196 182 183 176 190 191 194 196 190 191 190 193 178 168 157 171 191 189 179 191 172 183 192 198 200 203 214